Location: Archemont
(49.1579°N, 1.7598°E)
Time: 07:16:35
(UTC+00:00)

S-56A Canister/Altair - Pass Details

Date: 23 April 2024
Orbit: 638 x 2488 km, 38.9° (Epoch: 18 May)

Event Time Altitude Azimuth Distance (km) Brightness Sun altitude
Rises 21:21:14 0° 266° (W) 3,945 11.7 -19.7°
Reaches altitude 10° 21:24:33 10° 249° (WSW) 3,266 10.9 -20.0°
Maximum altitude 21:30:08 20° 207° (SSW) 3,032 10.3 -20.6°
Enters shadow 21:33:20 17° 185° (S) 3,448 10.4 -20.9°
Drops below altitude 10° 21:37:10 10° 167° (SSE) 4,256 - -21.2°
Sets 21:42:26 0° 153° (SSE) 5,585 - -21.7°
